Time,TemperatureF,DewpointF,PressureIn,WindDirection,WindDirectionDegrees,WindSpeedMPH,WindSpeedGustMPH,Humidity,HourlyPrecipIn,Conditions,Clouds,dailyrainin,SoftwareType,DateUTC
2013-08-01 00:02:00,48.7,42.3,29.99,SSE,158,0.0,3.0,78,0.00,,,0.00,meteohub,2013-08-01 07:02:00,
2013-08-01 00:12:00,48.7,41.5,29.99,SSE,158,0.0,0.0,76,0.00,,,0.00,meteohub,2013-08-01 07:12:00,
2013-08-01 00:17:00,48.6,42.1,29.99,SSE,158,1.0,3.0,78,0.00,,,0.00,meteohub,2013-08-01 07:17:00,
2013-08-01 00:22:00,48.4,42.3,29.99,SSE,158,0.0,3.0,79,0.00,,,0.00,meteohub,2013-08-01 07:22:00,
2013-08-01 00:27:00,47.8,41.4,29.99,SSE,158,0.0,3.0,78,0.00,,,0.00,meteohub,2013-08-01 07:27:00,
2013-08-01 00:37:00,47.7,41.2,29.99,SSE,158,0.0,2.0,78,0.00,,,0.00,meteohub,2013-08-01 07:37:00,
2013-08-01 00:42:00,47.7,40.5,29.98,SSE,158,0.0,2.0,76,0.00,,,0.00,meteohub,2013-08-01 07:42:00,
2013-08-01 00:52:00,48.0,40.8,29.98,SSE,158,0.0,2.0,76,0.00,,,0.00,meteohub,2013-08-01 07:52:00,
2013-08-01 00:57:00,48.2,41.0,29.98,SSE,158,0.0,1.0,76,0.00,,,0.00,meteohub,2013-08-01 07:57:00,
2013-08-01 01:02:00,48.2,41.4,29.98,SSE,158,0.0,1.0,77,0.00,,,0.00,meteohub,2013-08-01 08:02:00,
2013-08-01 01:07:00,47.8,41.4,29.98,SSE,158,0.0,2.0,78,0.00,,,0.00,meteohub,2013-08-01 08:07:00,
2013-08-01 01:12:00,47.1,41.0,29.98,SSE,158,0.0,2.0,79,0.00,,,0.00,meteohub,2013-08-01 08:12:00,
2013-08-01 01:17:00,46.9,41.4,29.98,SSE,158,0.0,2.0,81,0.00,,,0.00,meteohub,2013-08-01 08:17:00,
2013-08-01 01:27:00,46.6,41.0,29.98,SSE,158,0.0,0.0,81,0.00,,,0.00,meteohub,2013-08-01 08:27:00,
2013-08-01 01:32:00,46.4,41.2,29.98,SSE,158,0.0,1.0,82,0.00,,,0.00,meteohub,2013-08-01 08:32:00,
2013-08-01 01:37:00,46.2,41.0,29.98,SSE,158,0.0,1.0,82,0.00,,,0.00,meteohub,2013-08-01 08:37:00,
2013-08-01 01:47:00,46.4,41.2,29.97,SSE,158,1.0,0.0,82,0.00,,,0.00,meteohub,2013-08-01 08:47:00,
2013-08-01 01:52:00,46.2,41.0,29.98,SSE,158,0.0,1.0,82,0.00,,,0.00,meteohub,2013-08-01 08:52:00,
2013-08-01 01:57:00,46.0,40.8,29.98,SSE,158,0.0,1.0,82,0.00,,,0.00,meteohub,2013-08-01 08:57:00,
2013-08-01 02:07:00,45.7,41.2,29.98,SSE,158,0.0,0.0,84,0.00,,,0.00,meteohub,2013-08-01 09:07:00,
2013-08-01 02:12:00,45.9,41.5,29.97,SSE,158,0.0,0.0,85,0.00,,,0.00,meteohub,2013-08-01 09:12:00,
2013-08-01 02:22:00,46.2,41.9,29.97,SSE,158,0.0,1.0,85,0.00,,,0.00,meteohub,2013-08-01 09:22:00,
2013-08-01 02:27:00,46.4,41.9,29.98,SSE,158,0.0,2.0,84,0.00,,,0.00,meteohub,2013-08-01 09:27:00,
2013-08-01 02:32:00,46.2,41.7,29.97,SSE,158,0.0,3.0,84,0.00,,,0.00,meteohub,2013-08-01 09:32:00,
2013-08-01 02:42:00,46.2,42.3,29.97,SSE,158,0.0,3.0,86,0.00,,,0.00,meteohub,2013-08-01 09:42:00,
2013-08-01 02:52:00,46.6,41.0,29.97,SSE,158,0.0,0.0,81,0.00,,,0.00,meteohub,2013-08-01 09:52:00,
2013-08-01 03:02:00,47.8,41.4,29.98,SSE,158,0.0,0.0,78,0.00,,,0.00,meteohub,2013-08-01 10:02:00,
2013-08-01 03:07:00,48.0,41.9,29.98,SSE,158,0.0,0.0,79,0.00,,,0.00,meteohub,2013-08-01 10:07:00,
2013-08-01 03:12:00,48.2,42.6,29.98,SSE,158,0.0,0.0,81,0.00,,,0.00,meteohub,2013-08-01 10:12:00,
2013-08-01 03:17:00,48.2,41.4,29.98,SSE,158,0.0,0.0,77,0.00,,,0.00,meteohub,2013-08-01 10:17:00,
2013-08-01 03:27:00,48.7,42.3,29.98,SSE,158,0.0,0.0,78,0.00,,,0.00,meteohub,2013-08-01 10:27:00,
2013-08-01 03:47:00,48.7,43.2,29.97,SSE,158,1.0,3.0,81,0.00,,,0.00,meteohub,2013-08-01 10:47:00,
2013-08-01 03:52:00,48.6,42.1,29.97,SSE,158,0.0,3.0,78,0.00,,,0.00,meteohub,2013-08-01 10:52:00,
2013-08-01 04:07:00,49.1,42.3,29.97,SSE,158,2.0,2.0,77,0.00,,,0.00,meteohub,2013-08-01 11:07:00,
2013-08-01 04:12:00,49.3,42.1,29.97,SSE,158,0.0,2.0,76,0.00,,,0.00,meteohub,2013-08-01 11:12:00,
2013-08-01 04:17:00,49.3,43.0,29.97,SSE,158,0.0,2.0,79,0.00,,,0.00,meteohub,2013-08-01 11:17:00,
2013-08-01 04:22:00,48.9,43.0,29.97,SSE,158,0.0,2.0,80,0.00,,,0.00,meteohub,2013-08-01 11:22:00,
2013-08-01 04:32:00,48.4,42.8,29.97,SSE,158,0.0,1.0,81,0.00,,,0.00,meteohub,2013-08-01 11:32:00,
2013-08-01 04:37:00,48.4,42.8,29.97,SSE,158,0.0,1.0,81,0.00,,,0.00,meteohub,2013-08-01 11:37:00,
2013-08-01 04:42:00,48.2,42.6,29.97,SSE,158,0.0,1.0,81,0.00,,,0.00,meteohub,2013-08-01 11:42:00,
2013-08-01 04:47:00,48.2,42.6,29.97,SSE,158,0.0,1.0,81,0.00,,,0.00,meteohub,2013-08-01 11:47:00,
2013-08-01 04:52:00,48.2,42.6,29.97,SSE,158,0.0,0.0,81,0.00,,,0.00,meteohub,2013-08-01 11:52:00,
2013-08-01 04:57:00,48.0,42.8,29.97,SSE,158,0.0,2.0,82,0.00,,,0.00,meteohub,2013-08-01 11:57:00,
2013-08-01 05:02:00,47.7,42.8,29.97,SSE,158,0.0,2.0,83,0.00,,,0.00,meteohub,2013-08-01 12:02:00,
2013-08-01 05:07:00,47.3,42.4,29.97,SSE,158,0.0,2.0,83,0.00,,,0.00,meteohub,2013-08-01 12:07:00,
2013-08-01 05:12:00,47.3,42.4,29.97,SSE,158,0.0,2.0,83,0.00,,,0.00,meteohub,2013-08-01 12:12:00,
2013-08-01 05:22:00,47.5,42.6,29.97,SSE,158,0.0,2.0,83,0.00,,,0.00,meteohub,2013-08-01 12:22:00,
2013-08-01 05:27:00,47.3,42.8,29.98,SSE,158,0.0,2.0,84,0.00,,,0.00,meteohub,2013-08-01 12:27:00,
2013-08-01 05:32:00,47.1,43.2,29.98,SSE,158,0.0,2.0,86,0.00,,,0.00,meteohub,2013-08-01 12:32:00,
2013-08-01 05:37:00,47.3,42.8,29.97,SSE,158,0.0,1.0,84,0.00,,,0.00,meteohub,2013-08-01 12:37:00,
2013-08-01 05:42:00,47.5,43.2,29.98,SSE,158,0.0,1.0,85,0.00,,,0.00,meteohub,2013-08-01 12:42:00,
2013-08-01 05:57:00,47.5,43.5,29.98,SSE,158,0.0,2.0,86,0.00,,,0.00,meteohub,2013-08-01 12:57:00,
2013-08-01 06:07:00,47.8,42.6,29.98,SSE,158,0.0,1.0,82,0.00,,,0.00,meteohub,2013-08-01 13:07:00,
2013-08-01 06:17:00,48.6,44.2,29.98,SSE,158,1.0,3.0,85,0.00,,,0.00,meteohub,2013-08-01 13:17:00,
2013-08-01 06:27:00,48.6,43.3,29.98,SSE,155,2.0,3.0,82,0.00,,,0.00,meteohub,2013-08-01 13:27:00,
2013-08-01 06:32:00,49.1,43.5,29.98,SSE,155,0.0,3.0,81,0.00,,,0.00,meteohub,2013-08-01 13:32:00,
2013-08-01 06:42:00,49.6,45.3,29.99,SSE,155,0.0,3.0,85,0.00,,,0.00,meteohub,2013-08-01 13:42:00,
2013-08-01 06:47:00,49.6,44.8,29.99,SSE,155,0.0,1.0,83,0.00,,,0.00,meteohub,2013-08-01 13:47:00,
2013-08-01 06:52:00,49.6,44.4,29.99,SSE,155,0.0,1.0,82,0.00,,,0.00,meteohub,2013-08-01 13:52:00,
2013-08-01 07:02:00,50.2,45.0,29.99,SSE,155,0.0,0.0,82,0.00,,,0.00,meteohub,2013-08-01 14:02:00,
2013-08-01 07:07:00,50.5,44.6,29.99,SSE,155,0.0,0.0,80,0.00,,,0.00,meteohub,2013-08-01 14:07:00,
2013-08-01 07:22:00,51.6,43.3,29.99,SSE,155,1.0,2.0,73,0.00,,,0.00,meteohub,2013-08-01 14:22:00,
2013-08-01 07:32:00,53.1,46.0,29.99,SSE,155,3.0,4.0,77,0.00,,,0.00,meteohub,2013-08-01 14:32:00,
2013-08-01 07:37:00,53.1,46.4,29.99,SSE,155,0.0,4.0,78,0.00,,,0.00,meteohub,2013-08-01 14:37:00,
2013-08-01 07:42:00,53.2,46.9,29.99,SSE,155,0.0,4.0,79,0.00,,,0.00,meteohub,2013-08-01 14:42:00,
2013-08-01 07:52:00,53.8,45.0,29.99,SSE,155,0.0,3.0,72,0.00,,,0.00,meteohub,2013-08-01 14:52:00,
2013-08-01 07:57:00,54.1,45.7,29.99,WNW,286,1.0,2.0,73,0.00,,,0.00,meteohub,2013-08-01 14:57:00,
2013-08-01 08:07:00,54.7,45.1,29.99,WNW,294,2.0,4.0,70,0.00,,,0.00,meteohub,2013-08-01 15:07:00,
2013-08-01 08:12:00,54.9,44.1,29.99,WNW,294,2.0,4.0,67,0.00,,,0.00,meteohub,2013-08-01 15:12:00,
2013-08-01 08:17:00,55.0,44.6,30.00,WNW,294,2.0,4.0,68,0.00,,,0.00,meteohub,2013-08-01 15:17:00,
2013-08-01 08:27:00,55.0,45.9,29.99,WNW,294,0.0,3.0,71,0.00,,,0.00,meteohub,2013-08-01 15:27:00,
2013-08-01 08:32:00,55.2,46.8,29.99,WNW,294,2.0,3.0,73,0.00,,,0.00,meteohub,2013-08-01 15:32:00,
2013-08-01 08:52:00,55.9,45.1,29.99,WNW,294,1.0,1.0,67,0.00,,,0.00,meteohub,2013-08-01 15:52:00,
2013-08-01 08:57:00,56.5,46.0,29.99,WNW,294,0.0,2.0,68,0.00,,,0.00,meteohub,2013-08-01 15:57:00,
2013-08-01 09:07:00,57.4,44.4,29.98,WNW,294,0.0,2.0,62,0.00,,,0.00,meteohub,2013-08-01 16:07:00,
2013-08-01 09:22:00,59.2,45.3,29.98,WNW,294,0.0,1.0,60,0.00,,,0.00,meteohub,2013-08-01 16:22:00,
2013-08-01 09:27:00,59.7,46.8,29.98,WNW,296,0.0,1.0,62,0.00,,,0.00,meteohub,2013-08-01 16:27:00,
2013-08-01 09:32:00,60.3,45.9,29.98,WNW,290,0.0,2.0,59,0.00,,,0.00,meteohub,2013-08-01 16:32:00,
2013-08-01 09:47:00,60.3,46.4,29.98,WNW,295,3.0,3.0,60,0.00,,,0.00,meteohub,2013-08-01 16:47:00,
2013-08-01 10:02:00,59.7,47.5,29.98,NW,313,0.0,5.0,64,0.00,,,0.00,meteohub,2013-08-01 17:02:00,
2013-08-01 10:12:00,59.5,47.8,29.98,NW,307,1.0,3.0,65,0.00,,,0.00,meteohub,2013-08-01 17:12:00,
2013-08-01 10:17:00,59.5,47.8,29.98,NW,307,1.0,3.0,65,0.00,,,0.00,meteohub,2013-08-01 17:17:00,
2013-08-01 10:22:00,59.5,47.3,29.98,NW,307,1.0,3.0,64,0.00,,,0.00,meteohub,2013-08-01 17:22:00,
2013-08-01 10:27:00,59.4,48.4,29.98,WNW,300,1.0,3.0,67,0.00,,,0.00,meteohub,2013-08-01 17:27:00,
2013-08-01 10:32:00,59.2,48.6,29.98,WNW,300,2.0,3.0,68,0.00,,,0.00,meteohub,2013-08-01 17:32:00,
2013-08-01 10:42:00,58.6,48.6,29.98,WNW,287,1.0,4.0,69,0.00,,,0.00,meteohub,2013-08-01 17:42:00,
2013-08-01 10:47:00,58.5,49.1,29.98,WNW,288,3.0,4.0,71,0.00,,,0.00,meteohub,2013-08-01 17:47:00,
2013-08-01 10:52:00,57.9,48.9,29.98,WNW,296,2.0,5.0,72,0.00,,,0.00,meteohub,2013-08-01 17:52:00,
2013-08-01 11:02:00,57.7,48.7,29.99,WNW,296,3.0,6.0,72,0.00,,,0.00,meteohub,2013-08-01 18:02:00,
2013-08-01 11:37:00,55.8,51.1,30.01,WNW,303,1.0,5.0,84,0.01,,,0.01,meteohub,2013-08-01 18:37:00,
2013-08-01 11:52:00,55.0,50.9,30.01,WNW,303,0.0,2.0,86,0.02,,,0.02,meteohub,2013-08-01 18:52:00,
2013-08-01 11:57:00,55.0,51.3,30.01,WNW,303,0.0,1.0,87,0.03,,,0.03,meteohub,2013-08-01 18:57:00,
2013-08-01 12:07:00,54.9,50.7,30.01,WNW,303,0.0,3.0,86,0.04,,,0.04,meteohub,2013-08-01 19:07:00,
2013-08-01 12:27:00,55.2,52.0,30.02,SE,138,1.0,4.0,89,0.03,,,0.04,meteohub,2013-08-01 19:27:00,
2013-08-01 12:32:00,55.6,52.3,30.02,SE,138,1.0,4.0,89,0.03,,,0.04,meteohub,2013-08-01 19:32:00,
2013-08-01 12:37:00,56.1,52.7,30.01,SE,138,0.0,3.0,88,0.03,,,0.04,meteohub,2013-08-01 19:37:00,
2013-08-01 12:42:00,56.7,53.1,30.01,SE,138,0.0,2.0,88,0.02,,,0.04,meteohub,2013-08-01 19:42:00,
2013-08-01 12:57:00,57.6,52.5,30.00,SSE,163,0.0,4.0,83,0.00,,,0.04,meteohub,2013-08-01 19:57:00,
2013-08-01 13:17:00,58.1,53.2,29.99,SSE,163,0.0,3.0,84,0.00,,,0.04,meteohub,2013-08-01 20:17:00,
2013-08-01 13:22:00,58.5,53.1,29.98,South,180,1.0,2.0,82,0.00,,,0.04,meteohub,2013-08-01 20:22:00,
2013-08-01 13:32:00,58.8,52.7,29.98,SW,221,0.0,4.0,80,0.00,,,0.04,meteohub,2013-08-01 20:32:00,
2013-08-01 13:42:00,59.4,53.2,29.97,WSW,246,2.0,3.0,80,0.00,,,0.04,meteohub,2013-08-01 20:42:00,
2013-08-01 13:51:00,59.4,53.8,29.97,WNW,298,3.0,4.0,82,0.00,,,0.04,meteohub,2013-08-01 20:51:00,
2013-08-01 13:57:00,59.4,52.5,29.97,WNW,298,0.0,5.0,78,0.00,,,0.04,meteohub,2013-08-01 20:57:00,
2013-08-01 14:02:00,59.4,53.6,29.98,WNW,292,4.0,5.0,81,0.00,,,0.04,meteohub,2013-08-01 21:02:00,
2013-08-01 14:12:00,59.7,54.1,29.97,NW,312,3.0,6.0,82,0.00,,,0.04,meteohub,2013-08-01 21:12:00,
2013-08-01 14:22:00,59.7,52.9,29.97,WNW,300,4.0,6.0,78,0.00,,,0.04,meteohub,2013-08-01 21:22:00,
2013-08-01 14:26:00,59.5,53.1,29.97,WNW,298,1.0,5.0,79,0.00,,,0.04,meteohub,2013-08-01 21:26:00,
2013-08-01 14:37:00,59.7,53.6,29.96,WNW,292,0.0,6.0,80,0.00,,,0.04,meteohub,2013-08-01 21:37:00,
2013-08-01 14:52:00,59.7,53.2,29.96,SW,228,1.0,5.0,79,0.00,,,0.04,meteohub,2013-08-01 21:52:00,
2013-08-01 15:02:00,60.3,53.1,29.96,NW,324,3.0,5.0,77,0.00,,,0.04,meteohub,2013-08-01 22:02:00,
2013-08-01 15:07:00,60.3,52.7,29.95,WNW,298,3.0,4.0,76,0.00,,,0.04,meteohub,2013-08-01 22:07:00,
2013-08-01 15:16:00,60.3,52.3,29.96,WNW,288,2.0,6.0,75,0.00,,,0.04,meteohub,2013-08-01 22:16:00,
2013-08-01 15:22:00,60.3,53.1,29.95,WNW,292,0.0,6.0,77,0.00,,,0.04,meteohub,2013-08-01 22:22:00,
2013-08-01 15:42:00,60.4,52.5,29.95,WNW,291,2.0,5.0,75,0.00,,,0.04,meteohub,2013-08-01 22:42:00,
2013-08-01 15:47:00,60.3,53.4,29.95,WNW,290,1.0,5.0,78,0.00,,,0.04,meteohub,2013-08-01 22:47:00,
2013-08-01 15:56:00,59.0,52.9,29.94,NW,304,1.0,4.0,80,0.01,,,0.05,meteohub,2013-08-01 22:56:00,
2013-08-01 16:01:00,58.8,53.4,29.94,NW,304,3.0,4.0,82,0.01,,,0.05,meteohub,2013-08-01 23:01:00,
2013-08-01 16:07:00,58.5,53.1,29.95,West,277,2.0,4.0,82,0.01,,,0.05,meteohub,2013-08-01 23:07:00,
2013-08-01 16:12:00,58.5,53.6,29.94,SW,235,2.0,4.0,84,0.01,,,0.05,meteohub,2013-08-01 23:12:00,
2013-08-01 16:22:00,58.5,53.6,29.94,SW,235,0.0,4.0,84,0.01,,,0.05,meteohub,2013-08-01 23:22:00,
2013-08-01 16:26:00,58.6,52.5,29.94,SW,232,0.0,3.0,80,0.01,,,0.05,meteohub,2013-08-01 23:26:00,
2013-08-01 16:32:00,59.5,54.0,29.94,SW,225,3.0,5.0,82,0.01,,,0.05,meteohub,2013-08-01 23:32:00,
2013-08-01 16:37:00,60.1,53.6,29.94,South,185,0.0,5.0,79,0.01,,,0.05,meteohub,2013-08-01 23:37:00,
2013-08-01 16:42:00,60.4,52.5,29.94,SSW,193,0.0,5.0,75,0.01,,,0.05,meteohub,2013-08-01 23:42:00,
2013-08-01 16:47:00,61.0,53.1,29.93,SW,217,2.0,5.0,75,0.01,,,0.05,meteohub,2013-08-01 23:47:00,
2013-08-01 16:51:00,61.2,52.5,29.92,SW,221,3.0,3.0,73,0.00,,,0.05,meteohub,2013-08-01 23:51:00,
2013-08-01 16:57:00,62.1,52.9,29.93,SW,229,0.0,3.0,72,0.00,,,0.05,meteohub,2013-08-01 23:57:00,
2013-08-01 17:02:00,62.4,51.8,29.93,SW,229,1.0,3.0,68,0.00,,,0.05,meteohub,2013-08-02 00:02:00,
2013-08-01 17:06:00,62.4,51.8,29.93,West,259,1.0,4.0,68,0.00,,,0.00,meteohub,2013-08-02 00:06:00,
2013-08-01 17:12:00,62.2,51.6,29.92,West,259,2.0,4.0,68,0.00,,,0.00,meteohub,2013-08-02 00:12:00,
2013-08-01 17:17:00,61.9,52.0,29.93,West,259,0.0,4.0,70,0.00,,,0.00,meteohub,2013-08-02 00:17:00,
2013-08-01 17:22:00,61.5,53.2,29.93,West,259,0.0,3.0,74,0.00,,,0.00,meteohub,2013-08-02 00:22:00,
2013-08-01 17:26:00,61.3,52.7,29.93,West,259,0.0,2.0,73,0.00,,,0.00,meteohub,2013-08-02 00:26:00,
2013-08-01 17:32:00,61.3,52.7,29.93,West,259,1.0,2.0,73,0.00,,,0.00,meteohub,2013-08-02 00:32:00,
2013-08-01 17:36:00,61.2,52.0,29.93,West,261,0.0,2.0,72,0.00,,,0.00,meteohub,2013-08-02 00:36:00,
2013-08-01 17:42:00,61.2,52.9,29.93,West,261,0.0,3.0,74,0.00,,,0.00,meteohub,2013-08-02 00:42:00,
2013-08-01 17:47:00,61.2,52.9,29.93,West,261,0.0,3.0,74,0.00,,,0.00,meteohub,2013-08-02 00:47:00,
2013-08-01 17:57:00,61.0,52.3,29.93,West,261,1.0,3.0,73,0.00,,,0.00,meteohub,2013-08-02 00:57:00,
2013-08-01 18:02:00,60.8,52.2,29.93,West,261,0.0,2.0,73,0.00,,,0.00,meteohub,2013-08-02 01:02:00,
2013-08-01 18:07:00,60.6,52.0,29.94,West,261,0.0,2.0,73,0.00,,,0.00,meteohub,2013-08-02 01:07:00,
2013-08-01 18:17:00,60.4,51.8,29.94,West,261,0.0,0.0,73,0.00,,,0.00,meteohub,2013-08-02 01:17:00,
2013-08-01 18:22:00,60.4,51.8,29.94,West,261,0.0,0.0,73,0.00,,,0.00,meteohub,2013-08-02 01:22:00,
2013-08-01 18:37:00,60.3,51.3,29.95,West,261,0.0,0.0,72,0.00,,,0.00,meteohub,2013-08-02 01:37:00,
2013-08-01 18:42:00,60.1,51.8,29.95,West,261,0.0,0.0,74,0.00,,,0.00,meteohub,2013-08-02 01:42:00,
2013-08-01 18:46:00,60.1,52.5,29.95,West,261,0.0,0.0,76,0.00,,,0.00,meteohub,2013-08-02 01:46:00,
2013-08-01 18:56:00,59.7,52.9,29.94,West,261,0.0,1.0,78,0.00,,,0.00,meteohub,2013-08-02 01:56:00,
2013-08-01 19:02:00,59.4,53.2,29.95,SSE,152,3.0,3.0,80,0.00,,,0.00,meteohub,2013-08-02 02:02:00,
2013-08-01 19:07:00,58.5,53.1,29.94,SE,137,0.0,4.0,82,0.01,,,0.01,meteohub,2013-08-02 02:07:00,
2013-08-01 19:12:00,57.7,52.7,29.95,SE,137,0.0,4.0,83,0.01,,,0.01,meteohub,2013-08-02 02:12:00,
2013-08-01 19:17:00,57.4,52.9,29.96,SE,137,0.0,4.0,85,0.01,,,0.01,meteohub,2013-08-02 02:17:00,
2013-08-01 19:22:00,57.0,52.9,29.96,SE,137,0.0,4.0,86,0.01,,,0.01,meteohub,2013-08-02 02:22:00,
2013-08-01 19:31:00,56.7,53.1,29.96,SE,137,3.0,3.0,88,0.01,,,0.01,meteohub,2013-08-02 02:31:00,
2013-08-01 19:37:00,56.8,53.1,29.96,East,90,2.0,6.0,87,0.01,,,0.01,meteohub,2013-08-02 02:37:00,
2013-08-01 19:42:00,57.0,52.2,29.96,ESE,103,3.0,6.0,84,0.01,,,0.01,meteohub,2013-08-02 02:42:00,
2013-08-01 19:52:00,57.6,52.7,29.96,East,86,2.0,6.0,84,0.01,,,0.01,meteohub,2013-08-02 02:52:00,
2013-08-01 19:57:00,57.6,52.7,29.97,East,94,0.0,6.0,84,0.01,,,0.01,meteohub,2013-08-02 02:57:00,
2013-08-01 20:07:00,57.0,53.2,29.97,East,94,0.0,5.0,87,0.00,,,0.01,meteohub,2013-08-02 03:07:00,
2013-08-01 20:12:00,57.0,52.9,29.97,East,94,0.0,3.0,86,0.00,,,0.01,meteohub,2013-08-02 03:12:00,
2013-08-01 20:17:00,56.7,52.9,29.97,East,94,0.0,3.0,87,0.00,,,0.01,meteohub,2013-08-02 03:17:00,
2013-08-01 20:21:00,56.7,53.1,29.96,East,94,0.0,2.0,88,0.00,,,0.01,meteohub,2013-08-02 03:21:00,
2013-08-01 20:32:00,56.7,53.1,29.97,East,94,0.0,1.0,88,0.00,,,0.01,meteohub,2013-08-02 03:32:00,
2013-08-01 20:37:00,56.7,53.1,29.97,East,94,2.0,2.0,88,0.00,,,0.01,meteohub,2013-08-02 03:37:00,
2013-08-01 20:42:00,56.7,53.1,29.97,East,100,1.0,2.0,88,0.00,,,0.01,meteohub,2013-08-02 03:42:00,
2013-08-01 20:47:00,56.5,52.9,29.96,East,100,0.0,3.0,88,0.00,,,0.01,meteohub,2013-08-02 03:47:00,
2013-08-01 20:57:00,55.8,52.9,29.96,East,100,0.0,3.0,90,0.00,,,0.01,meteohub,2013-08-02 03:57:00,
2013-08-01 21:02:00,55.6,52.7,29.96,East,100,1.0,1.0,90,0.00,,,0.01,meteohub,2013-08-02 04:02:00,
2013-08-01 21:07:00,55.4,52.9,29.96,ESE,118,0.0,1.0,91,0.00,,,0.01,meteohub,2013-08-02 04:07:00,
2013-08-01 21:12:00,55.2,52.7,29.95,ESE,118,0.0,4.0,91,0.00,,,0.01,meteohub,2013-08-02 04:12:00,
2013-08-01 21:17:00,55.0,52.5,29.95,ESE,118,0.0,4.0,91,0.00,,,0.01,meteohub,2013-08-02 04:17:00,
2013-08-01 21:21:00,55.0,52.5,29.95,ESE,118,0.0,3.0,91,0.00,,,0.01,meteohub,2013-08-02 04:21:00,
2013-08-01 21:32:00,55.2,52.7,29.95,ESE,117,0.0,3.0,91,0.00,,,0.01,meteohub,2013-08-02 04:32:00,
2013-08-01 21:37:00,55.0,52.2,29.94,ESE,117,1.0,4.0,90,0.00,,,0.01,meteohub,2013-08-02 04:37:00,
2013-08-01 21:47:00,55.0,52.5,29.94,ESE,117,0.0,2.0,91,0.00,,,0.01,meteohub,2013-08-02 04:47:00,
2013-08-01 21:52:00,55.0,52.5,29.94,ESE,117,0.0,2.0,91,0.00,,,0.01,meteohub,2013-08-02 04:52:00,
2013-08-01 21:57:00,54.9,52.3,29.94,ESE,117,0.0,1.0,91,0.00,,,0.01,meteohub,2013-08-02 04:57:00,
2013-08-01 22:02:00,54.7,52.2,29.94,ESE,117,0.0,0.0,91,0.00,,,0.01,meteohub,2013-08-02 05:02:00,
2013-08-01 22:07:00,54.3,51.8,29.94,ESE,117,0.0,2.0,91,0.00,,,0.01,meteohub,2013-08-02 05:07:00,
2013-08-01 22:12:00,54.0,51.4,29.94,ESE,117,0.0,2.0,91,0.00,,,0.01,meteohub,2013-08-02 05:12:00,
2013-08-01 22:17:00,53.8,51.3,29.94,ESE,117,0.0,2.0,91,0.00,,,0.01,meteohub,2013-08-02 05:17:00,
2013-08-01 22:22:00,53.4,51.1,29.95,ESE,117,0.0,1.0,92,0.00,,,0.01,meteohub,2013-08-02 05:22:00,
2013-08-01 22:32:00,53.2,51.3,29.95,ESE,117,0.0,1.0,93,0.00,,,0.01,meteohub,2013-08-02 05:32:00,
2013-08-01 22:37:00,53.2,51.3,29.95,ESE,117,0.0,1.0,93,0.00,,,0.01,meteohub,2013-08-02 05:37:00,
2013-08-01 22:42:00,52.9,50.5,29.96,ESE,117,1.0,1.0,92,0.00,,,0.01,meteohub,2013-08-02 05:42:00,
2013-08-01 22:52:00,52.5,50.9,29.96,ESE,117,1.0,2.0,94,0.00,,,0.01,meteohub,2013-08-02 05:52:00,
2013-08-01 22:57:00,52.3,50.4,29.96,ESE,117,0.0,2.0,93,0.00,,,0.01,meteohub,2013-08-02 05:57:00,
2013-08-01 23:02:00,52.3,50.7,29.96,ESE,117,0.0,2.0,94,0.00,,,0.01,meteohub,2013-08-02 06:02:00,
2013-08-01 23:12:00,51.6,49.6,29.96,ESE,117,0.0,3.0,93,0.00,,,0.01,meteohub,2013-08-02 06:12:00,
2013-08-01 23:17:00,51.4,49.8,29.96,ESE,117,0.0,3.0,94,0.00,,,0.01,meteohub,2013-08-02 06:17:00,
2013-08-01 23:21:00,51.4,49.8,29.96,ESE,117,0.0,3.0,94,0.00,,,0.01,meteohub,2013-08-02 06:21:00,
2013-08-01 23:27:00,51.4,49.8,29.96,ESE,117,0.0,0.0,94,0.00,,,0.01,meteohub,2013-08-02 06:27:00,
2013-08-01 23:37:00,51.8,50.4,29.96,ESE,117,0.0,2.0,95,0.00,,,0.01,meteohub,2013-08-02 06:37:00,
2013-08-01 23:42:00,51.6,50.0,29.96,ESE,117,0.0,2.0,94,0.00,,,0.01,meteohub,2013-08-02 06:42:00,
2013-08-01 23:52:00,51.1,49.5,29.96,ESE,117,0.0,2.0,94,0.00,,,0.01,meteohub,2013-08-02 06:52:00,
2013-08-01 23:57:00,51.1,49.6,29.96,ESE,117,0.0,2.0,95,0.00,,,0.01,meteohub,2013-08-02 06:57:00,